Content
SEND FEEDBACK

Daily
Averages
Monthly
Summary
Brazil

TERESINA, PIAUI


Home > South America > Brazil > Piaui
Elevation: 328 feet     Latitude: 05 03S     Longitude: 042 48W

WEATHER
 
SELECT A DAY
Number of Records: 168,275;   Date Range: 6/30/96 - 12/18/14
 
SHARE

PRINT THIS DATA

[ ← Previous Day ]
WEATHER ALMANAC - FEBRUARY 2, 2013
[ Next Day → ]
[ °C ]   °F
Weather ElementAverageHighLow
Temperature86.9 °F95 °F (3:00 pm)78.8 °F (4:00 am)
Dewpoint73.3 °F77 °F (8:00 am)69.8 °F (12:00 pm)
Humidity64.7 %89 % (4:00 am)35 % (3:00 pm)
Barometer29.83 in29.92 in (9:00 am)29.74 in (6:00 pm)
Wind Speed2.1 mph6.9 mph (3:00 pm)
Weather ElementAverage
Visibility7.7 mi
Wind DirectionESE (102.3 °)

Weather ElementTotal
Precipitation---
Cooling Degree Days21.9 (Base 65)
Growing Degree Days36.9 (Base 50)
Averaged from 27 records on February 2, 2013
WEATHER CONDITIONS BREAKOUT
WIND DIRECTION BREAKOUT
WEATHER BY HOUR - FEBRUARY 2, 2013
[ °C ]   °F
Local TimeTemperatureDewpointHumidityBarometerVisibilityWind DirectionWind SpeedGust SpeedPrecipitationEventsConditions
1:00 AM82.4 °F75.2 °F79 %29.83 inWNW (300°)3.5 mphClear
2:00 AM80.6 °F75.2 °F84 %29.83 inCalmClear
3:00 AM80.0 °F76.0 °F82 %29.82 in12.0 miCalm
3:00 AM80.6 °F75.2 °F84 %29.83 inCalmClear
4:00 AM78.8 °F75.2 °F89 %29.83 in6.2 miCalmPartly Cloudy
5:00 AM78.8 °F75.2 °F89 %29.83 inCalmClear
6:00 AM78.8 °F75.2 °F89 %29.83 inCalmClear
7:00 AM82.4 °F75.2 °F79 %29.86 inCalmClear
8:00 AM84.2 °F77.0 °F79 %29.89 inNorth (10°)3.5 mphClear
9:00 AM87.0 °F75.0 °F59 %29.92 in12.0 miENE (60°)3.5 mphScattered Clouds
9:00 AM87.8 °F75.2 °F66 %29.92 in6.2 miENE (60°)3.5 mphPartly Cloudy
10:00 AM87.8 °F73.4 °F62 %29.92 in6.2 miENE (60°)2.3 mphScattered Clouds
11:00 AM89.6 °F73.4 °F59 %29.89 in6.2 miEast (100°)5.8 mphScattered Clouds
12:00 PM89.6 °F69.8 °F52 %29.89 in6.2 miEast (80°)3.5 mphMostly Cloudy
1:00 PM93.2 °F71.6 °F49 %29.83 in6.2 miEast (90°)2.3 mphMostly Cloudy
2:00 PM93.2 °F71.6 °F49 %29.83 in6.2 miSE (130°)2.3 mphMostly Cloudy
3:00 PM95.0 °F70.0 °F35 %29.80 in12.0 miSE (140°)6.9 mphPartly Cloudy
3:00 PM95.0 °F69.8 °F44 %29.80 in6.2 miSE (140°)6.9 mphScattered Clouds
4:00 PM95.0 °F69.8 °F44 %29.77 in6.2 miEast (80°)1.2 mphPartly Cloudy
5:00 PM95.0 °F69.8 °F44 %29.77 in6.2 miESE (120°)1.2 mphPartly Cloudy
6:00 PM91.4 °F71.6 °F52 %29.74 in6.2 miSouth (190°)3.5 mphPartly Cloudy
7:00 PM91.4 °F69.8 °F49 %29.74 in6.2 miSSW (200°)1.2 mphPartly Cloudy
8:00 PM87.8 °F73.4 °F62 %29.77 inSouth (170°)2.3 mphClear
9:00 PM86.0 °F73.0 °F56 %29.78 in12.0 miWNW (290°)1.2 mph
9:00 PM86.0 °F73.4 °F66 %29.77 inWNW (290°)1.2 mphClear
10:00 PM84.2 °F75.2 °F74 %29.80 inCalmClear
11:00 PM84.2 °F73.4 °F70 %29.80 inSSE (150°)1.2 mphClear
Hourly data recorded from SBTE, located miles away from Teresina, Piaui







STORIES FROM OUR PARTNERS